Content
SEND FEEDBACK

Daily
Averages
Monthly
Summary
Australia

PIMBA, SOUTH AUSTRALIA


Home > Oceania > Australia > South Australia
Elevation: 541 feet     Latitude: 31 09S     Longitude: 136 49E

WEATHER
 
SELECT A DAY
Number of Records: 175,917;   Date Range: 6/20/04 - 8/31/14
 
SHARE

PRINT THIS DATA

[ ← Previous Day ]
WEATHER ALMANAC - JANUARY 31, 2013
[ Next Day → ]
[ °C ]   °F
Weather ElementAverageHighLow
Temperature71.6 °F82.4 °F (4:00 pm)62.6 °F (6:00 am)
Dewpoint44.9 °F64.4 °F (1:49 pm)30.2 °F (12:00 am)
Humidity38.1 %100 % (1:49 pm)13 % (7:30 pm)
Barometer29.96 in30.06 in (11:30 pm)29.90 in (4:30 pm)
Wind Speed17.3 mph25.3 mph (3:30 pm)
Wind Gust35.7 mph (5:00 pm)
Weather ElementAverage
Visibility8.3 mi
Wind DirectionSSW (206.2 °)

Weather ElementTotal
Precipitation---
Cooling Degree Days7.5 (Base 65)
Growing Degree Days22.5 (Base 50)
Averaged from 65 records on January 31, 2013
WEATHER CONDITIONS BREAKOUT
WIND DIRECTION BREAKOUT
WEATHER BY HOUR - JANUARY 31, 2013
[ °C ]   °F
Local TimeTemperatureDewpointHumidityBarometerVisibilityWind DirectionWind SpeedGust SpeedPrecipitationEventsConditions
12:00 AM71.6 °F30.2 °F22 %29.95 in6.2 miWSW (250°)5.8 mph
12:30 AM71.6 °F41.0 °F33 %29.98 in6.2 miSSW (210°)13.8 mph
1:00 AM71.6 °F42.8 °F35 %29.98 in6.2 miSSW (200°)17.3 mph
1:30 AM71.0 °F44.0 °F27 %29.94 inSSW (200°)16.1 mph
1:30 AM71.6 °F44.6 °F38 %29.95 in6.2 miSSW (200°)16.1 mph
2:00 AM69.8 °F44.6 °F40 %29.95 in6.2 miSSW (200°)17.3 mph
2:30 AM68.0 °F46.4 °F46 %29.95 in6.2 miSSW (200°)17.3 mph
3:00 AM68.0 °F44.6 °F43 %29.95 in6.2 miSouth (180°)13.8 mph
3:00 AM68.0 °F45.0 °F33 %29.93 inSouth (180°)13.8 mph
3:30 AM66.2 °F46.4 °F49 %29.95 in6.2 miSouth (190°)10.4 mph
4:00 AM66.2 °F46.4 °F49 %29.95 in6.2 miSouth (170°)8.1 mph
4:30 AM65.0 °F47.0 °F42 %29.94 inSouth (170°)9.2 mph
4:30 AM66.2 °F48.2 °F52 %29.95 in6.2 miSouth (170°)9.2 mph
5:00 AM66.2 °F48.2 °F52 %29.95 in6.2 miSouth (170°)12.7 mph
5:30 AM64.4 °F48.2 °F56 %29.95 in6.2 miSouth (170°)9.2 mph
6:00 AM62.6 °F48.2 °F59 %29.95 inSSE (160°)6.9 mphClear
6:00 AM63.0 °F48.0 °F47 %29.94 in25.0 miSSE (160°)6.9 mphPartly Cloudy
6:30 AM62.6 °F48.2 °F59 %29.98 inSSW (200°)6.9 mphClear
7:00 AM62.6 °F48.2 °F59 %29.98 inSouth (190°)6.9 mphClear
7:30 AM63.0 °F48.0 °F48 %29.96 inSSW (210°)8.1 mph
7:30 AM62.6 °F48.2 °F59 %29.98 inSSW (210°)8.1 mphClear
8:00 AM64.4 °F50.0 °F59 %29.98 inSSW (200°)11.5 mphClear
8:30 AM66.2 °F50.0 °F56 %29.98 inSSW (210°)12.7 mphClear
9:00 AM68.0 °F50.0 °F52 %29.98 inSSW (210°)12.7 mphClear
9:00 AM67.0 °F51.0 °F45 %29.97 in25.0 miSSW (210°)12.7 mphPartly Cloudy
9:30 AM68.0 °F50.0 °F52 %29.98 inSSW (210°)13.8 mphClear
10:00 AM69.8 °F51.8 °F53 %29.98 inSSW (210°)15.0 mphClear
10:30 AM72.0 °F51.0 °F36 %29.98 inSSW (210°)16.1 mph
10:30 AM71.6 °F50.0 °F46 %29.98 inSSW (210°)16.1 mphClear
11:00 AM71.6 °F48.2 °F43 %29.98 in6.2 miWSW (240°)15.0 mph
11:30 AM73.4 °F44.6 °F36 %29.98 inSW (220°)13.8 mphClear
12:00 PM75.2 °F44.6 °F34 %29.98 inSW (220°)17.3 mphClear
12:00 PM76.0 °F45.0 °F22 %29.97 in25.0 miSW (220°)17.3 mphPartly Cloudy
12:11 PM77.0 °F46.4 °F34 %29.98 in6.2 miSW (220°)17.3 mph28.8 mph
12:30 PM75.2 °F48.2 °F38 %29.98 inSW (230°)17.3 mphClear
1:00 PM77.0 °F48.2 °F36 %29.98 inSW (220°)21.9 mphClear
1:30 PM78.0 °F48.0 °F24 %29.94 inSW (230°)20.7 mph
1:31 PM78.8 °F48.2 °F34 %29.95 inSW (220°)20.7 mph32.2 mphClear
1:49 PM64.4 °F64.4 °F100 %29.95 inSW (230°)19.6 mphClear
1:52 PM68.0 °F59.0 °F73 %29.95 inSW (230°)20.7 mph34.5 mphClear
2:00 PM75.2 °F51.8 °F44 %29.95 inSW (220°)20.7 mph34.5 mphClear
2:30 PM78.8 °F50.0 °F36 %29.95 inSSW (210°)23.0 mph34.5 mphClear
3:00 PM80.0 °F50.0 °F24 %29.91 in25.0 miSSW (210°)21.9 mphPartly Cloudy
3:30 PM80.6 °F50.0 °F34 %29.92 in6.2 miSW (220°)25.3 mphScattered Clouds
4:00 PM82.4 °F42.8 °F25 %29.92 in6.2 miSSW (210°)24.2 mphMostly Cloudy
4:30 PM81.0 °F44.0 °F17 %29.90 inSW (220°)24.2 mph
4:31 PM82.4 °F44.6 °F26 %29.92 in6.2 miSW (220°)23.0 mph34.5 mphScattered Clouds
5:00 PM80.6 °F42.8 °F26 %29.92 in6.2 miSW (220°)24.2 mph35.7 mphMostly Cloudy
5:30 PM80.6 °F41.0 °F24 %29.92 in6.2 miSSW (210°)24.2 mphMostly Cloudy
6:00 PM78.0 °F40.0 °F16 %29.91 inSW (220°)24.2 mph
6:00 PM78.8 °F41.0 °F26 %29.92 in6.2 miSW (220°)24.2 mphScattered Clouds
6:30 PM77.0 °F37.4 °F24 %29.92 in6.2 miSSW (210°)25.3 mphMostly Cloudy
7:00 PM77.0 °F37.4 °F24 %29.95 in6.2 miSSW (210°)24.2 mphMostly Cloudy
7:30 PM76.0 °F35.0 °F13 %29.94 inSW (220°)24.2 mph
7:30 PM75.2 °F33.8 °F22 %29.95 in6.2 miSW (220°)24.2 mphMostly Cloudy
8:00 PM73.4 °F33.8 °F23 %29.98 in6.2 miSSW (210°)24.2 mph
8:30 PM73.4 °F33.8 °F23 %29.98 in6.2 miSSW (210°)23.0 mph
9:00 PM71.6 °F37.4 °F29 %29.98 in6.2 miSSW (210°)20.7 mph
9:00 PM72.0 °F37.0 °F17 %29.98 inSW (220°)20.7 mph
9:30 PM71.6 °F37.4 °F29 %30.01 in6.2 miSSW (200°)19.6 mphScattered Clouds
10:00 PM71.6 °F37.4 °F29 %30.01 in6.2 miSSW (200°)19.6 mphMostly Cloudy
10:30 PM69.0 °F37.0 °F20 %30.01 inSSW (200°)25.3 mph
10:30 PM69.8 °F37.4 °F31 %30.04 in6.2 miSSW (200°)25.3 mphMostly Cloudy
11:00 PM68.0 °F37.4 °F33 %30.04 in6.2 miSouth (190°)23.0 mph
11:30 PM66.2 °F41.0 °F40 %30.06 in6.2 miSouth (180°)19.6 mph
Hourly data recorded from YPWR, located miles away from Pimba, South Australia







STORIES FROM OUR PARTNERS